Marshfield, WI

12:44 PM CST on February 07, 2016 (GMT -0600)
Marshfield Municipal

Weather History for KMFI - May, 2014

Change the Weather History Date:

Thursday, May 22, 2014

  Actual Average Record
Temperature  
Mean Temperature 56 °F -  
Max Temperature 69 °F 72 °F 90 °F (1925)
Min Temperature 46 °F 47 °F 26 °F (1967)
Degree Days  
Heating Degree Days 9    
Growing Degree Days 6 (Base 50)    
Moisture  
Dew Point 44 °F    
Average Humidity 63    
Maximum Humidity 90    
Minimum Humidity 45    
Precipitation  
Precipitation 0.00 in - - ()
Sea Level Pressure  
Sea Level Pressure 30.13 in    
Wind  
Wind Speed 8 mph (NNW)    
Max Wind Speed 13 mph    
Max Gust Speed -    
Visibility 10 miles    
Events      
Averages and records for this station are not official NWS values.
T = Trace of Precipitation, MM = Missing Value Source: NWS Daily Summary

Daily Weather History Graph

Daily Weather History Graph

Search for Another Location

Airport or City:

Trip Planner

Search our weather history database for the weather conditions in past years. The results will help you decide how hot, cold, wet, or windy it might be!

Date:

Astronomy

May. 22, 2014 Rise Set
Actual Time 5:25 AM CDT 8:29 PM CDT
Civil Twilight 4:50 AM CDT 9:04 PM CDT
Nautical Twilight 4:06 AM CDT 9:49 PM CDT
Astronomical Twilight 3:12 AM CDT 10:43 PM CDT
Moon 2:01 AM CDT (5/22) 2:02 PM CDT (5/22)
Length of Visible Light 16h 13m
Length of Day
15h 03m
Last Quarter, 37% of the Moon is Illuminated
May 22
Last Quarter
May 28
New
Jun 5
First Quarter
Jun 12
Full
Jun 19
Last Quarter

Hourly Weather History & Observations

Time (CDT) Temp. Dew Point Humidity Pressure Visibility Wind Dir Wind Speed Gust Speed Precip Events Conditions
12:54 AM 50.0 °F 46.0 °F 86% 30.06 in 10.0 mi NNW 6.9 mph - N/A   Clear
1:54 AM 51.1 °F 46.0 °F 83% 30.06 in 10.0 mi NNW 6.9 mph - N/A   Clear
2:54 AM 48.9 °F 44.1 °F 83% 30.08 in 10.0 mi NW 5.8 mph - N/A   Clear
3:54 AM 48.9 °F 44.1 °F 83% 30.09 in 10.0 mi WNW 5.8 mph - N/A   Mostly Cloudy
4:54 AM 46.9 °F 44.1 °F 90% 30.10 in 10.0 mi NNW 8.1 mph - N/A   Partly Cloudy
5:54 AM 46.9 °F 44.1 °F 90% 30.11 in 10.0 mi NNW 8.1 mph - N/A   Clear
6:54 AM 52.0 °F 45.0 °F 77% 30.11 in 10.0 mi North 8.1 mph - N/A   Mostly Cloudy
7:54 AM 55.0 °F 45.0 °F 69% 30.12 in 10.0 mi North 11.5 mph - N/A   Clear
8:54 AM 57.9 °F 45.0 °F 62% 30.14 in 10.0 mi NNE 9.2 mph - N/A   Clear
9:54 AM 61.0 °F 45.0 °F 56% 30.14 in 10.0 mi NNW 9.2 mph - N/A   Scattered Clouds
10:54 AM 60.1 °F 45.0 °F 57% 30.15 in 10.0 mi North 8.1 mph - N/A   Mostly Cloudy
11:54 AM 61.0 °F 45.0 °F 56% 30.17 in 10.0 mi NW 6.9 mph - N/A   Overcast
12:54 PM 63.0 °F 46.0 °F 54% 30.15 in 10.0 mi Variable 5.8 mph - N/A   Mostly Cloudy
1:54 PM 64.0 °F 45.0 °F 50% 30.14 in 10.0 mi NNW 10.4 mph - N/A   Mostly Cloudy
2:54 PM 64.9 °F 44.1 °F 47% 30.13 in 10.0 mi NNW 12.7 mph - N/A   Mostly Cloudy
4:54 PM 64.9 °F 46.0 °F 50% 30.12 in 10.0 mi North 8.1 mph - N/A   Mostly Cloudy
5:54 PM 66.0 °F 46.0 °F 48% 30.12 in 10.0 mi NW 10.4 mph - N/A   Partly Cloudy
6:54 PM 66.0 °F 44.1 °F 45% 30.12 in 10.0 mi NNW 11.5 mph - N/A   Scattered Clouds
7:54 PM 64.0 °F 42.1 °F 45% 30.13 in 10.0 mi North 9.2 mph - N/A   Clear
8:54 PM 60.1 °F 43.0 °F 53% 30.15 in 10.0 mi North 6.9 mph - N/A   Clear
9:54 PM 57.9 °F 42.1 °F 56% 30.16 in 10.0 mi North 6.9 mph - N/A   Clear
10:54 PM 55.9 °F 41.0 °F 57% 30.18 in 10.0 mi NNE 8.1 mph - N/A   Clear
11:54 PM 55.0 °F 39.9 °F 57% 30.19 in 10.0 mi NNE 4.6 mph - N/A   Clear